Location: Kellogg
(38.0159°N, 90.0546°W)
Time: 16:51:46
(UTC+00:00)

Altair - Pass Details

Date: 13 September 2024
Orbit: 1501 x 1682 km, 47.2° (Epoch: 15 October)

Event Time Altitude Azimuth Distance (km) Brightness Sun altitude
Exits shadow 10:28:46 17° 268° (W) 3,374 8.7 -14.7°
Maximum altitude 10:36:51 59° 343° (NNW) 1,899 8.0 -13.2°
Drops below altitude 10° 10:46:52 10° 62° (ENE) 3,939 11.0 -11.3°
Sets 10:50:08 0° 67° (ENE) 4,917 12.1 -10.7°
